Perturbed ephemeris below is based on elements from NK 504. Epoch = 2453000.50000 TT T = 2453014.65368 TT Peri. = 307.10729 a = 3.4501524 AU Node = 66.58818 J2000.0 e = 0.6306471 Incl. = 4.94383 q = 1.2743239 AU
m1 = 13.0 + 5 log d + 25.0 log r